Regional Weather Roundup
Issued by NWS

Home | Current Version | Previous Version | Graphics & Text | Print | Product List | Glossary On
Versions: 1 2 3 4 5 6 7 8 9 10 11 12 13 14 15 16 17 18 19 20 21 22 23 24 25 26 27 28 29 30 31 32 33 34 35 36 37 38 39 40 41 42 43 44 45 46 47 48 49 50
806
ASUS43 KLSX 220607
RWRMO

WEATHER SUMMARY FOR MISSOURI
NATIONAL WEATHER SERVICE SPRINGFIELD MO
1200 AM CST THU FEB 22 2018

NOTE: "FAIR" INDICATES FEW OR NO CLOUDS BELOW 12,000 FEET WITH NO
       SIGNIFICANT WEATHER AND/OR OBSTRUCTIONS TO VISIBILITY.
       CURRENT SKY AND/OR WEATHER CONDITIONS ARE NOT AVAILABLE FOR
       CHILLICOTHE AND FARMINGTON.

MOZ001>031-035>038-043-044-053-054-220700-
...NORTHERN AND WESTERN MISSOURI...

CITY           SKY/WX    TMP DP  RH WIND       PRES   REMARKS
KANSAS CTY INT FRZ DRZL  26  23  88 E15       30.43F WCI  14
6HR MIN TEMP:  26; 6HR MAX TEMP:  27; 6HR PCP: TRACE;

KANSAS C DTWN  CLOUDY    28  24  85 NE8       30.44F WCI  20
6HR MIN TEMP:  28; 6HR MAX TEMP:  29;

LEE`S SUMMIT   CLOUDY    26  25  96 E13       30.43F WCI  15
6HR MIN TEMP:  26; 6HR MAX TEMP:  27;

ST JOSEPH      CLOUDY    27  23  85 NE9       30.48R WCI  18
6HR MIN TEMP:  26; 6HR MAX TEMP:  28; 6HR PCP:  0.01;

CHILLICOTHE      N/A     27  21  78 NE7       30.49F WCI  19
6HR MIN TEMP:  27; 6HR MAX TEMP:  28;

KIRKSVILLE     CLOUDY    27  22  81 NE9       30.48F WCI  18
6HR MIN TEMP:  26; 6HR MAX TEMP:  27;


$$
MOZ066>068-077>081-088>096-101>105-220700-
...SOUTHWEST MISSOURI...

CITY           SKY/WX    TMP DP  RH WIND       PRES   REMARKS
SPRINGFIELD    CLOUDY    29  28  96 NE12      30.34F FOG     WCI  19
6HR MIN TEMP:  28; 6HR MAX TEMP:  29;

JOPLIN         CLOUDY    29  29 100 NE10      30.37F WCI  20
6HR MIN TEMP:  28; 6HR MAX TEMP:  29; 6HR PCP: TRACE;


$$
MOZ032>034-039>042-045>050-055>058-069>072-220700-
...CENTRAL MISSOURI...

CITY           SKY/WX    TMP DP  RH WIND       PRES   REMARKS
COLUMBIA       CLOUDY    30  28  92 NE12      30.44S FOG     WCI  20
6HR MIN TEMP:  29; 6HR MAX TEMP:  30;

JEFFERSON CITY CLOUDY    30  28  92 CALM      30.47F FOG
6HR MIN TEMP:  29; 6HR MAX TEMP:  30;

ROLLA          CLOUDY    28  28 100 N12       30.40R FOG     WCI  18
6HR MIN TEMP:  26; 6HR MAX TEMP:  28;

SEDALIA        LGT SNOW  29  29 100 NE8       30.45R FOG     WCI  21
6HR MIN TEMP:  29; 6HR MAX TEMP:  30; 6HR PCP: TRACE;

WHITEMAN AFB   FRZ DRZL  28  24  84 E9        30.40S WCI  19
WARRENSBURG    CLOUDY    28  25  86 NE6       30.45S WCI  22
OSAGE BEACH    MIX PCPN  29  28  96 NE9       30.42F FOG     WCI  20

$$
MOZ051-052-059>065-220700-
...EAST CENTRAL MISSOURI...

CITY           SKY/WX    TMP DP  RH WIND       PRES   REMARKS
ST LOUIS INTL  LGT RAIN  33  32  96 N8        30.43R WCI  26
6HR MIN TEMP:  30; 6HR MAX TEMP:  33; 6HR PCP:  0.01;

SPIRIT OF STL  CLOUDY    33  31  92 NE8       30.42R WCI  26
6HR MIN TEMP:  30; 6HR MAX TEMP:  33; 6HR PCP: TRACE;

ST CHARLES     CLOUDY    33  30  88 NE12      30.43S WCI  24
6HR MIN TEMP:  30; 6HR MAX TEMP:  33; 6HR PCP: TRACE;


$$
MOZ072>076-082>087-097>100-106>115-220700-
...SOUTH CENTRAL AND SOUTHEAST MISSOURI...

CITY           SKY/WX    TMP DP  RH WIND       PRES   REMARKS
CAPE GIRARDEAU RAIN      37  35  92 NE15      30.35F FOG     WCI  28
6HR MIN TEMP:  35; 6HR MAX TEMP:  37; 6HR PCP:  0.59;

FARMINGTON     MIX PCPN  32  31  96 E8        30.36F WCI  25
6HR MIN TEMP:  29; 6HR MAX TEMP:  32; 6HR PCP:  0.33;

POPLAR BLUFF   LGT RAIN  36  34  92 N14       30.35F FOG     WCI  27
6HR MIN TEMP:  34; 6HR MAX TEMP:  36; 6HR PCP:  0.66;

WEST PLAINS    CLOUDY    33  32  96 NE8       30.25F WCI  26
6HR MIN TEMP:  30; 6HR MAX TEMP:  33; 6HR PCP:  0.37;


$$



USA.gov is the U.S. government's official web portal to all federal, state and local government web resources and services.